Weather History for Ft Lauderdale, FL

Change the Weather History Date:

Tuesday, April 1, 2014

  Actual Average Record
Temperature  
Mean Temperature 71 °F 75 °F  
Max Temperature 79 °F 81 °F 90 °F (1985)
Min Temperature 63 °F 68 °F 44 °F (1839)
Degree Days  
Heating Degree Days 0 0  
Month to date heating degree days 0 0  
Since 1 July heating degree days 81 111  
Cooling Degree Days 6 10  
Month to date cooling degree days 6 10  
Year to date cooling degree days 666 620  
Growing Degree Days 22 (Base 50)    
Moisture  
Dew Point 62 °F    
Average Humidity 74    
Maximum Humidity 87    
Minimum Humidity 60    
Precipitation  
Precipitation 0.00 in 0.14 in 2.74 in (1962)
Month to date precipitation 0.00 0.14  
Year to date precipitation 8.17 10.09  
Snow  
Snow 0.00 in - - ()
Month to date snowfall 0.0  
Since 1 July snowfall 0.0  
Snow Depth 0.00 in    
Sea Level Pressure  
Sea Level Pressure 30.14 in    
Wind  
Wind Speed 7 mph (ENE)    
Max Wind Speed 15 mph    
Max Gust Speed 22 mph    
Visibility 10 miles    
Events      
T = Trace of Precipitation, MM = Missing Value Source: NWS Daily Summary

Daily Weather History Graph

Daily Weather History Graph

Search for Another Location

Airport:

Trip Planner

Search our weather history database for the weather conditions in past years. The results will help you decide how hot, cold, wet, or windy it might be!

Date:

Astronomy

Apr. 01, 2014 Rise Set
Actual Time 7:11 AM EDT 7:37 PM EDT
Civil Twilight 6:48 AM EDT 8:00 PM EDT
Nautical Twilight 6:21 AM EDT 8:27 PM EDT
Astronomical Twilight 5:54 AM EDT 8:55 PM EDT
Moon 8:24 AM EDT (4/1) 9:44 PM EDT (4/1)
Length of Visible Light 13h 12m
Length of Day
12h 25m
Waxing Crescent, 4% of the Moon is Illuminated
Apr 1
Waxing Crescent
Apr 7
First Quarter
Apr 15
Full
Apr 22
Last Quarter
Apr 29
New

Hourly Weather History & Observations

Time (EDT) Temp. Dew Point Humidity Pressure Visibility Wind Dir Wind Speed Gust Speed Precip Events Conditions
12:53 AM 72.0 °F 62.1 °F 71% 30.14 in 10.0 mi East 8.1 mph - N/A   Partly Cloudy
1:53 AM 71.1 °F 60.1 °F 68% 30.12 in 10.0 mi East 4.6 mph - N/A   Scattered Clouds
2:53 AM 66.9 °F 60.1 °F 79% 30.11 in 10.0 mi Calm Calm - N/A   Partly Cloudy
3:53 AM 66.0 °F 61.0 °F 84% 30.10 in 10.0 mi NE 3.5 mph - N/A   Clear
4:53 AM 64.9 °F 60.1 °F 84% 30.09 in 10.0 mi North 3.5 mph - N/A   Clear
5:53 AM 64.9 °F 60.1 °F 84% 30.10 in 10.0 mi North 4.6 mph - N/A   Clear
6:53 AM 68.0 °F 59.0 °F 73% 30.11 in 10.0 mi ENE 3.5 mph - N/A   Partly Cloudy
7:53 AM 68.0 °F 60.1 °F 76% 30.13 in 10.0 mi NE 3.5 mph - N/A   Partly Cloudy
8:53 AM 73.9 °F 61.0 °F 64% 30.15 in 10.0 mi East 10.4 mph - N/A   Partly Cloudy
9:53 AM 75.9 °F 61.0 °F 60% 30.16 in 10.0 mi ESE 15.0 mph - N/A   Partly Cloudy
10:53 AM 77.0 °F 62.1 °F 60% 30.17 in 10.0 mi East 13.8 mph 18.4 mph N/A   Partly Cloudy
11:53 AM 77.0 °F 63.0 °F 62% 30.18 in 10.0 mi ENE 8.1 mph - N/A   Partly Cloudy
12:53 PM 78.1 °F 64.0 °F 62% 30.16 in 10.0 mi ESE 11.5 mph 17.3 mph N/A   Scattered Clouds
1:53 PM 78.1 °F 64.9 °F 64% 30.15 in 10.0 mi ENE 8.1 mph 19.6 mph N/A   Scattered Clouds
2:53 PM 79.0 °F 64.9 °F 62% 30.14 in 10.0 mi ENE 9.2 mph 18.4 mph N/A   Scattered Clouds
3:53 PM 79.0 °F 64.9 °F 62% 30.12 in 10.0 mi East 10.4 mph - N/A   Scattered Clouds
4:53 PM 79.0 °F 64.0 °F 60% 30.12 in 10.0 mi ENE 6.9 mph - N/A   Scattered Clouds
5:53 PM 75.9 °F 62.1 °F 62% 30.12 in 10.0 mi East 10.4 mph - N/A   Scattered Clouds
6:53 PM 75.0 °F 62.1 °F 64% 30.13 in 10.0 mi ENE 9.2 mph - N/A   Scattered Clouds
7:53 PM 73.9 °F 61.0 °F 64% 30.14 in 10.0 mi East 8.1 mph - N/A   Partly Cloudy
8:53 PM 73.0 °F 61.0 °F 66% 30.15 in 10.0 mi East 8.1 mph - N/A   Partly Cloudy
9:53 PM 73.0 °F 61.0 °F 66% 30.17 in 10.0 mi East 8.1 mph - N/A   Partly Cloudy
10:53 PM 72.0 °F 60.1 °F 66% 30.17 in 10.0 mi East 6.9 mph - N/A   Clear
11:53 PM 71.1 °F 60.1 °F 68% 30.17 in 10.0 mi East 4.6 mph - N/A   Scattered Clouds